STARLINK-31774, 59622

Orbit data source: Space-Track

STARLINK-31774, 59622 is a payload satellite owned by SpaceX/Seattle (US) in LEO that was launched on Sun, 28 Apr 2024 UTC via an FALCON 9 launch vehicle from the Air Force Eastern Test Range (AFETR). Payload-class satellites include a variety of spacecraft equipped with specific instruments for various scientific and technological missions. These include communications satellites like Starlink; space stations such as the ISS; scientific satellites like the Hubble; Earth observation satellites from companies like Planet Labs, Umbra, and HawkEye 360; GPS; miniature CubeSats for education and research; and military/defense satellites.

Loading next visibility...
Identifier
59622, 2024-080X
Orbit
LEO
Country
Flag of USUS
Related business
Manufacturer
SpaceX/Seattle
Mission
Operational Commercial Communications
Bus & Motor
STARLINK V2M, Unknown motor
Mass
730 kg wet, ~700 kg dry
Launch date (UTC)
2024-04-28 (2 years ago)
Launch vehicle
FALCON 9
Launch site
Air Force Eastern Test Range (AFETR)
Object type
Payload
Rocket body
Debris
Shape & HBR
Box + 2 Pan, 17.7 m
Radar Cross Section
33.884 m², Large (>1 m²)

Expand to show TLE details & history
Last TLE update: 2 days ago

TLE from 2 days ago
0 STARLINK-31774
1 59622U 24080X   26171.36206197  .00000126  00000-0  14094-4 0  9990
2 59622  43.0008 174.7294 0001115 281.6709  78.4018 15.27574804120279
Epoch: 2026-06-20T08:41Z
TLE epoch observation values (Epoch: 2026-06-20T08:41:22.154Z)
Latitude
0.00003°
Longitude
135.80935°
Altitude
482.686 km
Speed
7.626 km/s
True Right ascension
11h 38m 55s
True Declination
0° 00' 00"
Sunlit
Object was in daylight at epoch
Visualization orbit readout
Latitude
Unknown
Longitude
Unknown
Altitude
Unknown
Speed
Unknown
Apparent Right ascension
Unknown
Apparent Declination
Unknown
Sunlit
N/A
Visualization observer readout
Local Sidereal Time
21:24:00
Azimuth
Unknown
Elevation
Unknown
Doppler factor
Unknown
Orbital elements
Apogee altitude
485.775 km
Perigee altitude
484.244 km
Semi-major axis
6,863.147 km
Eccentricity
0.00011
Inclination
43.0008°
RAAN
174.7294°
Arg. of periapsis
281.6709°
True anomaly
78.41432°
Mean anomaly
78.4018°
Eccentric anomaly
78.40806°
Mean motion
3.81732 °/min
Orbital period
94.31 mins
BSTAR
0.000014094
Loading maneuver chart data...
Computing Atmospheric mass density...
Loading historical data...
Loading historical data...
Loading historical data...
Loading historical data...
Loading historical data...
Loading historical data...
Loading historical data...

Documentation

Showing up to 5 results
|